Elkins, WV

9:38 PM EST on February 07, 2016 (GMT -0500)
Elkins-Randolph County

Weather History for KEKN - December, 2011

Change the Weather History Date:

Sunday, December 18, 2011

  Actual Average Record
Temperature  
Mean Temperature 26 °F 32 °F  
Max Temperature 33 °F 41 °F 68 °F (1924)
Min Temperature 19 °F 22 °F -10 °F (1989)
Degree Days  
Heating Degree Days 39 33  
Month to date heating degree days 514 558  
Since 1 July heating degree days 1616 1842  
Cooling Degree Days 0 0  
Month to date cooling degree days 0 0  
Year to date cooling degree days 699 475  
Moisture  
Dew Point 22 °F    
Average Humidity 77    
Maximum Humidity 92    
Minimum Humidity 61    
Precipitation  
Precipitation 0.02 in 0.10 in 0.86 in (1937)
Month to date precipitation 2.15 1.98  
Year to date precipitation 50.74 44.65  
Snow  
Snow 0.30 in - - ()
Month to date snowfall 4.7  
Since 1 September snowfall 6.3  
Snow Depth 1.00 in    
Sea Level Pressure  
Sea Level Pressure 30.27 in    
Wind  
Wind Speed 3 mph (West)    
Max Wind Speed 14 mph    
Max Gust Speed 21 mph    
Visibility 6 miles    
Events Snow    
T = Trace of Precipitation, MM = Missing Value Source: NWS Daily Summary

Daily Weather History Graph

Daily Weather History Graph

Search for Another Location

Airport or City:

Trip Planner

Search our weather history database for the weather conditions in past years. The results will help you decide how hot, cold, wet, or windy it might be!

Date:

Astronomy

Dec. 18, 2011 Rise Set
Actual Time 7:32 AM EST 4:59 PM EST
Civil Twilight 7:02 AM EST 5:29 PM EST
Nautical Twilight 6:29 AM EST 6:02 PM EST
Astronomical Twilight 5:56 AM EST 6:35 PM EST
Moon 12:34 AM EST (12/18) 12:21 PM EST (12/18)
Length of Visible Light 10h 26m
Length of Day
9h 26m
Last Quarter, 42% of the Moon is Illuminated
Dec 18
Last Quarter
Dec 24
New
Jan 1
First Quarter
Jan 9
Full
Jan 16
Last Quarter

Hourly Weather History & Observations

Time (EST) Temp. Windchill Dew Point Humidity Pressure Visibility Wind Dir Wind Speed Gust Speed Precip Events Conditions
12:32 AM 28.4 °F - 21.2 °F 74% 30.16 in 3.0 mi Calm Calm - 0.00 in Snow Light Snow
12:42 AM 28.4 °F - 21.2 °F 74% 30.16 in 2.5 mi Calm Calm - 0.00 in Snow Light Snow
12:51 AM 28.0 °F - 23.0 °F 81% 30.25 in 3.0 mi Calm Calm - 0.00 in Snow Light Snow
1:14 AM 28.4 °F - 23.0 °F 80% 30.16 in 2.5 mi Calm Calm - 0.00 in Snow Light Snow
1:51 AM 28.0 °F - 23.0 °F 81% 30.24 in 2.5 mi Calm Calm - 0.00 in Snow Light Snow
1:58 AM 28.4 °F - 23.0 °F 80% 30.16 in 4.0 mi Calm Calm - 0.00 in Snow Light Snow
2:51 AM 28.0 °F - 21.9 °F 78% 30.24 in 10.0 mi Calm Calm - 0.00 in   Overcast
3:10 AM 28.4 °F - 23.0 °F 80% 30.16 in 8.0 mi Calm Calm - 0.00 in Snow Light Snow
3:26 AM 28.4 °F 24.6 °F 21.2 °F 74% 30.16 in 5.0 mi Variable 3.5 mph - 0.00 in Snow Light Snow
3:51 AM 28.0 °F 24.2 °F 21.9 °F 78% 30.24 in 10.0 mi West 3.5 mph - 0.00 in   Overcast
4:51 AM 28.9 °F 22.8 °F 21.9 °F 75% 30.23 in 9.0 mi WSW 5.8 mph - 0.00 in   Overcast
5:31 AM 28.4 °F 19.7 °F 23.0 °F 80% 30.16 in 7.0 mi WSW 9.2 mph 16.1 mph 0.00 in Snow Light Snow
5:51 AM 28.9 °F 21.1 °F 23.0 °F 78% 30.25 in 6.0 mi West 8.1 mph - 0.00 in Snow Light Snow
6:51 AM 28.9 °F 21.1 °F 23.0 °F 78% 30.28 in 10.0 mi West 8.1 mph 20.7 mph 0.00 in   Overcast
7:51 AM 28.9 °F 20.4 °F 23.0 °F 78% 30.30 in 9.0 mi West 9.2 mph - 0.00 in   Overcast
8:51 AM 28.9 °F 21.9 °F 23.0 °F 78% 30.32 in 3.0 mi West 6.9 mph - 0.00 in Snow Light Snow
9:00 AM 28.4 °F 23.3 °F 23.0 °F 80% 30.23 in 2.5 mi Variable 4.6 mph - 0.00 in Snow Light Snow
9:13 AM 28.4 °F 23.3 °F 23.0 °F 80% 30.24 in 1.5 mi West 4.6 mph - 0.00 in Snow Light Snow
9:51 AM 28.9 °F 25.2 °F 24.1 °F 82% 30.34 in 1.5 mi Variable 3.5 mph - 0.01 in Snow Light Snow
10:07 AM 30.2 °F 26.7 °F 24.8 °F 80% 30.26 in 2.0 mi WSW 3.5 mph - 0.00 in Snow Light Snow
10:24 AM 30.2 °F - 24.8 °F 80% 30.26 in 1.5 mi Calm Calm - 0.00 in Snow Light Snow
10:49 AM 30.2 °F 26.7 °F 24.8 °F 80% 30.26 in 2.0 mi Variable 3.5 mph 18.4 mph 0.00 in Snow Light Snow
10:51 AM 30.0 °F 26.5 °F 25.0 °F 82% 30.35 in 2.0 mi Variable 3.5 mph - 0.00 in Snow Light Snow
11:02 AM 30.2 °F 24.3 °F 24.8 °F 80% 30.26 in 4.0 mi Variable 5.8 mph - 0.01 in Snow Light Snow
11:51 AM 30.9 °F 26.2 °F 23.0 °F 72% 30.33 in 10.0 mi WNW 4.6 mph - 0.01 in   Overcast
12:51 PM 32.0 °F 25.6 °F 23.0 °F 69% 30.30 in 10.0 mi WNW 6.9 mph - N/A   Overcast
1:51 PM 33.1 °F 30.0 °F 23.0 °F 66% 30.29 in 10.0 mi Variable 3.5 mph - N/A   Overcast
2:51 PM 33.1 °F 26.1 °F 23.0 °F 66% 30.30 in 10.0 mi SW 8.1 mph - N/A   Overcast
3:51 PM 33.1 °F 30.0 °F 21.9 °F 64% 30.30 in 10.0 mi West 3.5 mph - N/A   Overcast
4:19 PM 33.8 °F 29.6 °F 21.2 °F 60% 30.24 in 10.0 mi WSW 4.6 mph - N/A   Overcast
4:51 PM 32.0 °F - 21.9 °F 66% 30.32 in 10.0 mi Calm Calm - N/A   Mostly Cloudy
5:51 PM 28.0 °F - 21.9 °F 78% 30.35 in 10.0 mi Calm Calm - N/A   Partly Cloudy
6:51 PM 25.0 °F - 21.0 °F 85% 30.35 in 10.0 mi Calm Calm - N/A   Clear
7:51 PM 23.0 °F - 19.9 °F 88% 30.34 in 9.0 mi Calm Calm - N/A   Clear
8:51 PM 21.9 °F - 19.0 °F 89% 30.33 in 7.0 mi Calm Calm - N/A   Clear
9:51 PM 21.0 °F - 19.0 °F 92% 30.33 in 6.0 mi Calm Calm - N/A   Clear
10:51 PM 19.9 °F - 17.1 °F 89% 30.34 in 6.0 mi Calm Calm - N/A   Clear
11:51 PM 19.9 °F - 17.1 °F 89% 30.33 in 5.0 mi Calm Calm - N/A   Clear